This is the latest recevied weather packets stored in our database for station/object WB5RFA. If no packets are shown the sender has not sent any weather packets the latest 10 day(s).
| Time | Temp. | Humidity | Pressure | Rain* | Wind** | Luminosity | Snow |
|---|---|---|---|---|---|---|---|
| 1777914072 | 23.89° C | 48% | 1000.7 hPa | 0 mm | - | - | - |
| 1777913592 | 23.89° C | 49% | 1000.8 hPa | 0 mm | - | - | - |
| 1777913111 | 24.44° C | 48% | 1000.9 hPa | 0 mm | - | - | - |
| 1777912632 | 23.89° C | 49% | 1000.9 hPa | 0 mm | - | - | - |
| 1777912153 | 23.33° C | 50% | 1000.9 hPa | 0 mm | - | - | - |
| 1777911672 | 23.33° C | 51% | 1000.9 hPa | 0 mm | - | - | - |
| 1777911191 | 22.78° C | 49% | 1000.8 hPa | 0 mm | - | - | - |
| 1777910712 | 22.78° C | 51% | 1000.9 hPa | 0 mm | - | - | - |
| 1777910231 | 22.78° C | 51% | 1001 hPa | 0 mm | - | - | - |
| 1777909753 | 22.78° C | 50% | 1001 hPa | 0 mm | - | - | - |
| 1777909272 | 22.22° C | 54% | 1001 hPa | 0 mm | - | - | - |
| 1777908791 | 21.67° C | 52% | 1001.1 hPa | 0 mm | - | - | - |
| 1777908312 | 21.67° C | 52% | 1001.2 hPa | 0 mm | - | - | - |
| 1777907831 | 21.67° C | 52% | 1001.3 hPa | 0 mm | - | - | - |
| 1777907352 | 21.67° C | 52% | 1001.3 hPa | 0 mm | - | - | - |
| 1777906871 | 21.11° C | 54% | 1001.2 hPa | 0 mm | - | - | - |
| 1777906392 | 21.11° C | 54% | 1001.1 hPa | 0 mm | - | - | - |
| 1777905911 | 21.11° C | 55% | 1001.1 hPa | 0 mm | - | - | - |
| 1777905433 | 20.56° C | 57% | 1001.3 hPa | 0 mm | - | - | - |
| 1777904952 | 20° C | 56% | 1001.3 hPa | 0 mm | - | - | - |
| 1777904471 | 20° C | 57% | 1001.3 hPa | 0 mm | - | - | - |
| 1777903992 | 19.44° C | 59% | 1001.5 hPa | 0 mm | - | - | - |
| 1777903512 | 18.89° C | 59% | 1001.5 hPa | 0 mm | - | - | - |
| 1777903033 | 18.89° C | 58% | 1001.6 hPa | 0 mm | - | - | - |
| 1777902552 | 18.89° C | 59% | 1001.4 hPa | 0 mm | - | - | - |
* Rain latest hour (hover to see other rain measurements)
** Current wind speed in m/s (hover to see current wind gust speed)